Theta_e
267 267 267 266 265 258 257 256 259 256 256 264 267 266 267 265 267 269 270 271 269 266 262 259 262 265 266 268 270 270 272 273 273 275 278 279 280 281 284 286 288 291 294 299
265 269 267 265 267 265 261 255 257 262 262 270 271 258 260 266 269 270 272 272 272 271 270 268 264 266 267 265 267 269 270 272 273 274 276 278 279 280 282 284 286 287 288 291
263 267 267 264 265 267 262 258 262 259 264 261 263 265 264 264 266 269 270 270 270 269 269 269 266 269 264 265 265 267 268 271 272 273 274 276 278 279 280 282 284 284 285 286
261 265 264 269 268 270 267 265 263 265 266 266 267 265 265 264 263 264 267 269 270 268 267 267 267 267 266 266 266 266 266 269 270 272 273 274 277 278 279 281 281 282 282 283
259 260 268 270 267 267 266 268 269 267 269 270 267 264 267 269 266 265 264 265 264 262 267 267 267 267 267 267 266 267 268 268 269 269 273 273 274 276 278 279 280 281 281 281
262 260 263 271 269 269 268 265 270 269 269 268 268 262 266 268 269 269 269 268 268 267 267 267 267 267 267 267 267 267 269 270 270 269 271 273 274 275 278 279 279 280 280 280
262 262 265 272 269 270 265 270 271 270 271 269 265 268 269 269 269 269 269 269 269 268 268 268 268 268 267 267 267 269 270 271 272 271 270 272 274 275 276 278 278 278 278 279
263 261 259 269 268 269 274 268 270 270 271 268 269 270 270 271 270 270 269 269 270 268 268 269 269 268 267 267 268 269 269 270 271 271 273 274 272 274 275 277 277 277 277 277
266 266 273 270 274 272 269 271 269 266 270 269 268 270 271 271 270 270 270 269 269 268 268 267 268 267 267 267 268 268 268 268 269 270 272 272 271 273 274 276 276 277 276 276
267 274 275 275 273 272 269 269 265 263 264 266 268 268 270 269 267 267 269 268 268 267 267 266 267 270 267 267 268 267 266 267 269 269 270 270 273 275 273 276 276 276 276 275
269 274 275 278 275 275 272 270 267 263 263 264 264 267 265 264 265 264 265 264 266 266 266 266 266 267 267 268 267 267 267 268 268 270 267 269 271 270 274 275 278 277 277 277
270 277 277 279 274 269 270 271 269 262 264 261 261 266 260 264 261 259 261 261 263 264 263 263 261 265 267 267 267 266 266 269 268 268 266 270 269 270 276 278 279 280 281 280
275 277 276 275 274 273 269 272 268 265 264 262 262 259 258 259 257 262 257 257 258 261 261 258 260 260 261 262 266 267 266 267 267 268 266 266 267 269 268 272 276 277 278 279
274 274 274 276 277 272 269 270 264 265 265 265 260 258 257 257 257 257 260 259 256 255 256 256 258 259 259 257 260 262 262 271 268 266 267 267 268 268 269 269 268 270 274 277
275 274 276 275 275 276 274 269 266 268 270 267 264 262 261 259 260 260 258 256 257 256 255 255 256 258 255 256 261 257 261 261 261 263 265 269 268 268 268 269 268 269 270 273
276 276 275 275 276 276 272 270 270 270 271 270 269 267 266 263 262 260 260 257 259 259 258 257 259 259 255 254 257 259 258 269 269 264 265 266 266 266 266 266 265 267 268 269
274 276 276 275 275 275 273 274 274 274 273 272 271 271 269 266 263 261 260 259 259 255 255 257 258 261 260 258 256 259 260 261 271 268 264 264 263 264 264 265 265 265 266 270
278 278 278 276 276 276 277 277 276 273 273 274 272 271 268 266 264 264 262 261 260 260 259 260 260 262 262 261 260 259 260 260 262 262 264 264 262 262 262 262 262 262 263 268
278 277 277 277 277 276 277 276 275 275 274 273 271 270 268 266 265 265 263 261 261 261 263 262 268 268 264 264 265 261 262 262 261 262 264 269 265 264 262 261 262 262 262 266
278 279 278 277 279 278 278 275 274 272 273 272 271 269 267 265 265 265 264 264 264 264 267 267 264 263 263 265 272 264 263 262 262 263 264 264 263 263 263 267 265 264 263 266
278 279 278 278 279 280 275 274 271 269 271 271 269 267 266 265 265 265 264 262 265 268 269 271 266 264 266 267 270 267 265 264 263 262 264 265 267 267 266 264 264 265 265 265
277 277 277 277 278 276 270 268 270 271 270 269 268 267 266 265 264 264 265 264 266 272 267 267 267 268 268 274 268 265 264 266 266 266 265 266 266 266 265 264 263 265 264 263
275 275 276 276 275 270 267 268 269 269 268 267 266 266 266 265 265 263 263 265 266 269 265 264 270 274 274 266 266 267 267 266 266 266 266 266 267 266 265 264 264 264 263 263
275 276 276 271 267 265 265 267 268 267 267 267 267 266 265 263 263 264 266 270 271 269 266 266 269 272 267 260 262 262 263 262 262 261 262 267 261 261 261 262 263 263 263 265
272 269 266 265 266 267 267 267 266 265 265 264 264 265 265 264 263 263 262 265 271 266 263 270 271 268 257 261 261 260 260 260 260 261 260 260 259 258 258 259 259 260 262 263
267 268 268 269 268 268 267 267 265 265 265 263 263 263 263 264 264 262 262 265 264 265 260 261 261 261 260 259 259 259 259 259 260 259 262 259 258 257 256 257 257 257 259 259
269 270 267 267 268 268 267 266 265 265 265 263 262 262 262 262 264 263 264 261 261 261 261 260 259 261 260 260 259 258 258 258 261 259 257 255 255 256 257 258 258 259 259 258
Wind_Speed
11 18 12 14 10 12 12 8 9 5 9 13 15 10 10 7 7 8 7 5 3 3 5 5 6 7 8 8 10 10 11 13 14 13 12 11 11 11 11 10 10 10 10 10
9 8 8 13 16 16 18 4 15 15 24 21 19 2 6 9 7 8 6 5 4 3 5 5 4 6 7 8 9 9 10 12 13 13 13 13 12 12 12 13 12 12 13 12
8 4 12 10 10 18 9 5 9 10 17 1 6 6 6 5 7 7 5 5 5 4 4 4 4 5 6 7 7 9 10 11 13 13 13 14 13 13 13 13 12 12 13 15
7 9 4 3 4 7 15 7 18 8 10 9 8 7 9 7 6 7 7 6 5 4 4 4 4 5 6 6 7 8 8 10 11 12 13 13 13 13 13 11 12 11 13 13
2 3 11 4 4 7 9 9 19 18 16 12 2 4 7 5 7 5 6 6 5 4 3 3 4 4 5 7 6 7 9 9 9 9 12 13 14 13 11 11 12 11 10 12
2 2 7 2 3 4 4 6 7 14 12 6 4 2 6 4 4 7 7 5 6 6 3 3 3 2 4 6 7 8 9 9 8 7 8 12 12 11 10 9 9 9 11 11
6 5 12 6 5 4 5 5 5 8 9 7 6 8 4 3 4 5 6 8 5 5 5 4 2 1 3 3 5 7 7 8 9 8 6 8 10 9 10 9 10 10 10 12
5 5 12 8 5 7 6 3 3 5 7 6 8 6 6 6 5 6 7 6 7 6 6 5 3 1 2 3 4 5 6 7 8 9 6 6 8 10 10 10 9 10 10 9
13 11 1 10 4 3 1 4 4 3 6 7 7 6 5 5 5 5 6 6 6 7 6 5 4 3 3 3 3 4 5 6 7 8 7 7 5 7 8 9 9 7 8 8
2 9 14 11 11 5 7 7 4 4 4 3 7 4 6 5 4 3 4 4 5 7 7 6 5 3 4 2 3 4 5 6 6 6 7 7 6 6 4 7 7 8 7 8
6 13 11 17 6 9 3 3 5 4 6 8 5 7 6 4 5 6 4 2 3 7 6 7 6 5 3 2 0 3 3 4 5 5 5 6 6 4 3 5 9 8 8 6
14 7 7 16 1 2 3 5 4 3 5 4 6 9 3 6 4 4 4 2 3 5 4 5 4 5 4 3 2 1 3 2 3 3 4 4 5 5 10 11 13 16 18 14
17 2 4 5 7 4 3 5 4 5 6 5 4 5 4 4 3 6 4 4 4 7 5 4 4 3 3 2 2 3 3 3 2 3 3 3 4 4 5 7 11 13 14 16
3 2 8 8 8 1 4 6 5 5 6 6 5 4 4 4 3 4 7 6 4 4 4 4 4 5 4 3 2 3 2 7 2 1 2 3 3 3 3 4 6 6 10 13
7 8 6 5 9 12 5 3 5 9 7 6 6 7 5 6 7 7 4 4 3 5 3 3 3 5 3 4 4 3 3 3 2 1 2 2 2 3 3 4 4 5 6 9
4 3 5 8 12 10 6 5 8 10 8 6 6 5 6 5 4 3 3 5 5 5 5 5 5 4 4 4 3 3 3 9 6 2 2 1 1 1 2 3 3 4 5 6
3 5 3 7 8 7 6 8 7 10 8 6 7 5 4 4 3 3 4 5 4 3 3 4 4 3 3 4 4 2 2 2 8 2 2 2 2 1 0 1 2 3 3 7
9 11 11 10 12 10 11 10 8 8 9 7 4 4 4 5 4 3 4 5 4 1 4 5 4 3 4 4 4 3 3 2 1 2 1 1 2 2 2 0 2 2 2 4
11 14 15 14 9 7 8 10 9 7 5 4 4 5 5 4 4 4 6 6 5 3 2 2 3 2 4 5 5 3 3 2 2 2 2 5 1 2 2 2 2 2 3 2
12 11 10 11 10 8 9 7 8 5 4 4 4 4 4 5 5 6 5 5 4 3 3 2 3 1 1 4 4 4 3 3 3 2 2 2 2 2 2 4 3 3 2 2
13 13 13 14 14 10 5 4 3 3 3 4 5 5 5 6 6 6 5 3 2 3 3 3 2 1 2 2 2 3 3 3 3 2 2 1 2 1 2 3 3 3 3 2
9 11 14 17 14 7 1 1 3 4 4 4 4 6 7 6 6 5 4 3 2 9 4 2 1 4 3 5 4 3 2 2 2 2 2 2 2 3 3 3 3 3 3 3
12 13 14 13 6 4 3 3 3 4 5 5 6 6 6 4 4 5 3 1 3 3 2 0 4 1 11 5 3 3 2 2 2 1 0 1 1 2 2 3 3 3 3 4
12 13 9 2 3 2 4 2 4 5 5 6 6 6 8 5 3 3 3 7 7 7 2 2 4 12 11 3 3 3 3 3 2 2 2 3 1 1 2 2 3 3 3 6
7 4 1 1 2 2 5 5 6 6 7 7 7 5 6 3 3 2 3 3 9 7 4 6 10 9 3 3 3 3 2 2 2 1 1 2 2 2 3 3 3 3 4 3
4 2 1 2 2 3 4 4 5 4 5 6 5 4 4 4 5 5 4 7 5 7 3 3 2 3 2 2 3 2 2 2 3 3 4 2 3 3 4 4 4 4 4 4
2 3 2 3 3 3 3 4 5 5 5 5 5 3 4 4 5 5 7 4 4 4 3 3 2 2 2 2 2 1 1 2 5 3 2 3 3 5 6 6 6 6 6 6
Wind_Direction
256 264 245 244 215 181 200 184 191 252 220 267 282 280 280 276 289 280 284 287 263 277 288 295 317 320 325 330 337 336 346 351 349 341 343 347 359 355 355 -0 357 353 348 342
285 254 235 249 239 209 212 208 265 264 287 274 277 316 280 264 273 272 269 276 290 277 302 316 307 316 324 328 337 337 348 353 347 350 348 354 1 1 3 7 10 11 9 6
268 337 293 276 230 203 183 202 186 192 230 325 280 251 252 259 239 266 257 252 274 281 287 308 314 320 324 321 321 344 346 350 350 353 354 355 358 7 9 8 11 17 14 14
277 314 297 254 177 179 201 205 211 263 260 238 246 261 262 233 220 249 243 239 250 262 294 306 321 331 319 334 339 337 340 349 349 351 356 354 1 7 6 7 13 15 20 13
266 268 298 251 167 151 173 274 204 216 249 263 241 322 304 202 209 215 215 221 225 211 235 287 312 326 345 341 335 344 346 343 344 344 357 356 1 2 0 7 14 14 16 14
166 233 259 286 166 149 148 289 180 191 229 236 137 39 261 211 200 216 218 218 222 223 228 250 278 323 0 350 343 348 344 333 332 341 357 0 355 358 357 4 12 13 14 8
221 256 277 243 156 168 78 247 152 186 220 170 188 203 206 181 232 206 200 215 223 204 229 240 250 226 347 0 353 325 331 335 344 350 352 360 353 356 354 5 13 14 13 14
171 216 271 139 82 176 214 270 197 194 224 212 227 250 254 267 235 202 207 201 210 209 232 248 245 224 320 342 333 337 337 345 345 350 354 3 356 354 355 1 13 17 15 13
195 216 262 208 231 232 154 208 236 178 241 218 222 228 244 257 247 223 217 211 199 196 219 230 241 218 287 289 356 354 352 348 348 349 359 353 7 355 357 360 10 14 16 8
98 250 248 236 251 229 206 222 221 229 241 203 235 212 252 249 244 240 228 213 195 185 201 225 222 237 224 288 9 7 358 346 341 355 3 351 352 1 355 4 5 5 20 9
256 281 289 274 218 260 263 248 274 251 222 230 210 255 228 252 242 237 225 246 205 192 198 210 198 214 232 214 16 345 347 335 348 359 356 349 352 332 11 349 15 8 8 18
251 244 233 271 271 211 197 242 255 233 296 251 193 242 197 254 230 212 223 223 233 221 194 204 187 200 225 230 232 284 320 343 327 4 355 356 345 346 1 10 17 14 16 17
253 344 205 277 283 224 237 269 259 238 229 262 227 220 196 225 218 229 213 218 226 222 211 168 175 200 231 263 260 245 241 272 296 350 341 348 353 356 350 353 13 13 9 12
197 122 276 239 264 67 220 257 282 270 249 238 238 220 212 218 258 232 234 220 204 201 206 185 176 218 228 216 238 259 264 265 147 218 296 327 355 1 351 358 358 355 357 10
235 215 252 322 298 280 243 265 270 276 271 260 206 231 196 230 240 237 218 212 197 173 190 174 194 257 211 193 209 217 233 247 234 201 253 262 353 15 22 10 0 346 346 4
352 310 254 250 269 275 239 259 253 275 274 267 256 224 221 212 231 230 201 166 159 196 193 189 209 239 193 180 194 198 231 245 226 193 182 138 60 33 8 17 4 357 352 342
278 288 248 253 260 257 236 250 253 274 274 248 248 236 192 174 180 202 202 185 191 194 182 172 214 201 193 190 183 202 206 229 247 180 177 180 159 172 187 7 352 345 329 335
250 273 277 273 275 289 299 294 277 259 254 250 225 196 182 180 207 198 172 151 139 150 223 226 225 227 221 200 187 178 190 194 218 211 205 194 207 176 174 233 311 319 313 325
262 263 269 262 249 266 268 273 274 256 244 213 195 194 194 184 167 138 129 130 139 124 270 185 217 124 194 214 184 164 179 177 194 224 189 224 226 179 200 226 265 271 289 301
270 266 267 282 280 259 261 266 264 237 217 167 148 144 157 150 138 127 131 135 156 175 152 154 124 152 192 238 229 164 167 178 190 193 183 211 193 194 216 257 246 253 265 282
320 321 313 304 289 279 247 268 226 192 144 137 152 160 149 134 130 126 117 105 163 184 161 105 99 211 183 203 118 153 166 179 185 193 203 213 241 225 221 233 251 250 267 255
306 302 297 301 293 290 69 109 119 112 116 127 123 118 120 118 114 97 79 136 162 122 111 93 344 293 231 243 141 140 148 181 188 185 205 218 226 235 243 238 244 251 246 255
285 282 286 278 277 175 108 86 98 113 124 132 129 127 121 122 123 120 120 134 106 125 104 319 294 1 79 60 68 92 101 79 61 47 11 278 264 248 249 251 252 245 251 250
301 302 304 80 107 110 110 88 88 89 95 94 101 113 125 119 72 51 121 145 139 120 87 271 103 81 74 56 61 65 65 65 55 31 352 354 350 322 305 277 284 278 264 284
322 323 331 138 134 102 107 103 93 86 88 85 81 81 98 64 122 134 81 59 105 78 44 41 82 71 65 61 67 66 56 14 289 125 338 283 285 287 279 281 272 260 257 254
301 303 339 30 75 102 113 116 108 111 113 101 79 81 82 79 98 97 98 97 75 84 60 63 87 75 61 91 67 53 27 347 346 315 293 274 272 263 264 269 265 264 269 265
300 52 36 47 48 80 106 125 125 130 118 119 108 90 97 100 120 108 98 80 84 84 75 62 31 54 93 72 32 357 326 305 307 270 252 275 268 264 264 258 255 254 253 247